| time (UTC) | temp F | wind direction | speed MPH | gust MPH | rain 1hr in | rain 24hr in | rain mn in | humidity % | barometer mb |
| 20260507114545 | 31 | 0.0 | 0.0 | 0.00 | 0.00 | 0.00 | 87 | 1013.0 | |
| 20260507113529 | 30 | 0.0 | 0.0 | 0.00 | 0.00 | 0.00 | 89 | 1012.8 | |
| 20260507112520 | 29 | 0.0 | 0.0 | 0.00 | 0.00 | 0.00 | 89 | 1012.8 | |
| 20260507111600 | 29 | 0.0 | 0.0 | 0.00 | 0.00 | 0.00 | 89 | 1012.6 | |
| 20260507110520 | 28 | 0.0 | 0.0 | 0.00 | 0.00 | 0.00 | 88 | 1012.5 | |
| 20260507105520 | 29 | 0.0 | 0.0 | 0.00 | 0.00 | 0.00 | 88 | 1012.6 | |
| 20260507104528 | 29 | 0.0 | 0.0 | 0.00 | 0.00 | 0.00 | 88 | 1012.5 | |
| 20260507103528 | 29 | 0.0 | 0.0 | 0.00 | 0.00 | 0.00 | 88 | 1012.5 | |
| 20260507102540 | 29 | 0.0 | 0.0 | 0.00 | 0.00 | 0.00 | 87 | 1012.5 | |
| 20260507101519 | 29 | 0.0 | 0.0 | 0.00 | 0.00 | 0.00 | 87 | 1012.4 | |
| 20260507100537 | 29 | 0.0 | 0.0 | 0.00 | 0.00 | 0.00 | 86 | 1012.5 | |
| 20260507095539 | 30 | 0.0 | 0.0 | 0.00 | 0.00 | 0.00 | 85 | 1012.6 | |
| 20260507094520 | 30 | 0.0 | 0.0 | 0.00 | 0.00 | 0.00 | 84 | 1012.6 | |
| 20260507093520 | 31 | 0.0 | 0.0 | 0.00 | 0.00 | 0.00 | 82 | 1012.7 | |
| 20260507092519 | 32 | 0.0 | 0.0 | 0.00 | 0.00 | 0.00 | 82 | 1012.7 | |
| 20260507091519 | 32 | 0.0 | 0.0 | 0.00 | 0.00 | 0.00 | 82 | 1012.7 | |
| 20260507090536 | 32 | 0.0 | 0.0 | 0.00 | 0.00 | 0.00 | 80 | 1012.8 | |
| 20260507085520 | 32 | 0.0 | 0.0 | 0.00 | 0.00 | 0.00 | 81 | 1012.8 | |
| 20260507084540 | 32 | 0.0 | 0.0 | 0.00 | 0.00 | 0.00 | 82 | 1012.9 | |
| 20260507083528 | 32 | 0.0 | 0.0 | 0.00 | 0.00 | 0.00 | 83 | 1012.9 | |
| 20260507082519 | 32 | 0.0 | 0.0 | 0.00 | 0.00 | 0.00 | 83 | 1012.9 | |
| 20260507081528 | 32 | 0.0 | 0.0 | 0.00 | 0.00 | 0.00 | 81 | 1012.8 | |
| 20260507080528 | 33 | 0.0 | 0.0 | 0.00 | 0.00 | 0.00 | 80 | 1013.0 | |
| 20260507075519 | 33 | 0.0 | 0.0 | 0.00 | 0.00 | 0.00 | 82 | 1012.8 | |
| 20260507074539 | 32 | 0.0 | 0.0 | 0.00 | 0.00 | 0.00 | 81 | 1012.9 | |
| 20260507073519 | 32 | 0.0 | 0.0 | 0.00 | 0.00 | 0.00 | 80 | 1013.1 | |
| 20260507072519 | 33 | 0.0 | 0.0 | 0.00 | 0.00 | 0.00 | 78 | 1013.3 | |
| 20260507071539 | 34 | 0.0 | 0.0 | 0.00 | 0.00 | 0.00 | 76 | 1013.4 | |
| 20260507070536 | 35 | 0.0 | 0.0 | 0.00 | 0.00 | 0.00 | 73 | 1013.5 | |
| 20260507065519 | 35 | 0.0 | 0.0 | 0.00 | 0.00 | 0.00 | 72 | 1013.6 | |
| 20260507064528 | 36 | 0.0 | 0.0 | 0.00 | 0.00 | 0.00 | 73 | 1013.8 | |
| 20260507063519 | 36 | 0.0 | 0.0 | 0.00 | 0.00 | 0.00 | 70 | 1013.8 | |
| 20260507062519 | 36 | 0.0 | 0.0 | 0.00 | 0.00 | 0.00 | 70 | 1013.8 | |
| 20260507061519 | 36 | 0.0 | 0.0 | 0.00 | 0.00 | 0.00 | 69 | 1013.9 | |
| 20260507060519 | 37 | 0.0 | 0.0 | 0.00 | 0.00 | 0.00 | 65 | 1013.8 | |
| 20260507055519 | 38 | 0.0 | 0.0 | 0.00 | 0.00 | 0.00 | 65 | 1013.9 | |
| 20260507054537 | 38 | 0.0 | 0.0 | 0.00 | 0.00 | 0.00 | 62 | 1013.9 | |
| 20260507053540 | 39 | 0.0 | 0.0 | 0.00 | 0.00 | 0.00 | 62 | 1014.2 | |
| 20260507052559 | 39 | 0.0 | 0.0 | 0.00 | 0.00 | 0.00 | 62 | 1014.3 | |
| 20260507051527 | 39 | 0.0 | 0.0 | 0.00 | 0.00 | 0.00 | 61 | 1014.4 | |
| 20260507050519 | 40 | 0.0 | 0.0 | 0.00 | 0.00 | 0.00 | 60 | 1014.5 | |
| 20260507045536 | 40 | 0.0 | 0.0 | 0.00 | 0.00 | 0.00 | 58 | 1014.6 | |
| 20260507044519 | 40 | 0.0 | 0.0 | 0.00 | 0.00 | 0.00 | 58 | 1014.7 | |
| 20260507043519 | 40 | 0.0 | 0.0 | 0.00 | 0.00 | 0.00 | 58 | 1014.8 | |
| 20260507042519 | 40 | 0.0 | 0.0 | 0.00 | 0.00 | 0.00 | 59 | 1014.8 | |
| 20260507041608 | 40 | 0.0 | 1.0 | 0.00 | 0.00 | 0.00 | 57 | 1014.9 | |
| 20260507040519 | 40 | 0.0 | 0.0 | 0.00 | 0.00 | 0.00 | 59 | 1014.9 | |
| 20260507035539 | 41 | 0.0 | 0.0 | 0.00 | 0.00 | 0.00 | 58 | 1015.0 | |
| 20260507034545 | 41 | 0.0 | 2.0 | 0.00 | 0.00 | 0.00 | 57 | 1015.0 | |
| 20260507033600 | 41 | 0.0 | 1.0 | 0.00 | 0.00 | 0.00 | 59 | 1015.1 | |
| 20260507032527 | 41 | 0.0 | 0.0 | 0.00 | 0.00 | 0.00 | 60 | 1014.9 | |
| 20260507031657 | 41 | 0.0 | 2.0 | 0.00 | 0.00 | 0.00 | 57 | 1015.0 | |
| 20260507030539 | 41 | 0.0 | 2.0 | 0.00 | 0.00 | 0.00 | 58 | 1015.0 | |
| 20260507025528 | 41 | 0.0 | 1.0 | 0.00 | 0.00 | 0.00 | 60 | 1015.0 | |
| 20260507024519 | 41 | 0.0 | 1.0 | 0.00 | 0.00 | 0.00 | 60 | 1014.9 | |
| 20260507023519 | 41 | 0.0 | 1.0 | 0.00 | 0.00 | 0.00 | 60 | 1014.8 | |
| 20260507022519 | 41 | 0.0 | 0.0 | 0.00 | 0.00 | 0.00 | 59 | 1014.6 | |
| 20260507021546 | 41 | 0.0 | 2.0 | 0.00 | 0.00 | 0.00 | 58 | 1014.5 | |
| 20260507020545 | 41 | 0.0 | 0.0 | 0.00 | 0.00 | 0.00 | 57 | 1014.4 | |
| 20260507015536 | 42 | 0.0 | 0.0 | 0.00 | 0.00 | 0.00 | 58 | 1014.3 | |
| 20260507014518 | 42 | 0.0 | 1.0 | 0.00 | 0.00 | 0.00 | 58 | 1014.3 | |
| 20260507013519 | 42 | 0.0 | 2.0 | 0.00 | 0.00 | 0.00 | 56 | 1014.2 | |
| 20260507012539 | 42 | 0.0 | 1.0 | 0.00 | 0.00 | 0.00 | 58 | 1014.1 | |
| 20260507011519 | 42 | 0.0 | 1.0 | 0.00 | 0.00 | 0.00 | 56 | 1014.1 | |
| 20260507010527 | 42 | 0.0 | 0.0 | 0.00 | 0.00 | 0.00 | 55 | 1014.0 | |
| 20260507005519 | 42 | 0.0 | 2.0 | 0.00 | 0.00 | 0.00 | 54 | 1014.0 | |
| 20260507004556 | 43 | 0.0 | 2.0 | 0.00 | 0.00 | 0.00 | 54 | 1013.7 | |
| 20260507003518 | 43 | 0.0 | 0.0 | 0.00 | 0.00 | 0.00 | 55 | 1013.7 | |
| 20260507002536 | 43 | 0.0 | 1.0 | 0.00 | 0.00 | 0.00 | 55 | 1013.6 | |
| 20260507001519 | 43 | 0.0 | 0.0 | 0.00 | 0.00 | 0.00 | 55 | 1013.3 | |
| 20260507000518 | 43 | 0.0 | 0.0 | 0.00 | 0.00 | 0.00 | 54 | 1013.3 | |
| 20260506235519 | 43 | 0.0 | 3.0 | 0.00 | 0.00 | 0.00 | 54 | 1013.3 | |
| 20260506234519 | 44 | 0.0 | 2.0 | 0.00 | 0.00 | 0.00 | 53 | 1013.4 | |
| 20260506233518 | 44 | 0.0 | 1.0 | 0.00 | 0.00 | 0.00 | 52 | 1013.3 | |
| 20260506232519 | 44 | 0.0 | 0.0 | 0.00 | 0.00 | 0.00 | 53 | 1013.3 | |
| 20260506231559 | 45 | 0.0 | 5.0 | 0.00 | 0.00 | 0.00 | 51 | 1013.3 | |
| 20260506230526 | 45 | 0.0 | 3.0 | 0.00 | 0.00 | 0.00 | 51 | 1013.4 | |
| 20260506225546 | 45 | 0.0 | 1.0 | 0.00 | 0.00 | 0.00 | 51 | 1013.4 | |
| 20260506224518 | 45 | 0.0 | 3.0 | 0.00 | 0.00 | 0.00 | 51 | 1013.4 | |
| 20260506223519 | 45 | 0.0 | 3.0 | 0.00 | 0.00 | 0.00 | 51 | 1013.5 | |
| 20260506222657 | 46 | 0.0 | 2.0 | 0.00 | 0.00 | 0.00 | 50 | 1013.4 | |
| 20260506222018 | 46 | 0.0 | 4.0 | 0.00 | 0.00 | 0.00 | 52 | 1013.4 | |
| 20260506221019 | 46 | 0.0 | 1.0 | 0.00 | 0.00 | 0.00 | 51 | 1013.4 | |
| 20260506220018 | 46 | 0.0 | 8.0 | 0.00 | 0.00 | 0.00 | 51 | 1013.3 | |
| 20260506215019 | 46 | 0.0 | 1.0 | 0.00 | 0.00 | 0.00 | 49 | 1013.1 | |
| 20260506214047 | 47 | 0.0 | 1.0 | 0.00 | 0.00 | 0.00 | 50 | 1013.1 | |
| 20260506213027 | 47 | 0.0 | 4.0 | 0.00 | 0.00 | 0.00 | 49 | 1013.1 | |
| 20260506212027 | 47 | 0.0 | 8.0 | 0.00 | 0.00 | 0.00 | 48 | 1013.1 | |
| 20260506211019 | 47 | 0.0 | 5.0 | 0.00 | 0.00 | 0.00 | 46 | 1013.1 | |
| 20260506210019 | 47 | 0.0 | 4.0 | 0.00 | 0.00 | 0.00 | 47 | 1013.1 | |
| 20260506205036 | 48 | 0.0 | 0.0 | 0.00 | 0.00 | 0.00 | 48 | 1013.3 | |
| 20260506204027 | 47 | 203 | 1.0 | 8.0 | 0.00 | 0.00 | 0.00 | 46 | 1013.3 |
| 20260506203018 | 48 | 0.0 | 4.0 | 0.00 | 0.00 | 0.00 | 48 | 1013.2 | |
| 20260506202018 | 48 | 0.0 | 3.0 | 0.00 | 0.00 | 0.00 | 48 | 1013.2 | |
| 20260506201018 | 49 | 0.0 | 6.0 | 0.00 | 0.00 | 0.00 | 45 | 1013.3 | |
| 20260506200019 | 49 | 0.0 | 2.0 | 0.00 | 0.00 | 0.00 | 48 | 1013.4 | |
| 20260506195018 | 49 | 225 | 1.0 | 6.0 | 0.00 | 0.00 | 0.00 | 45 | 1013.4 |
| 20260506194047 | 49 | 0.0 | 3.0 | 0.00 | 0.00 | 0.00 | 45 | 1013.3 | |
| 20260506193021 | 49 | 0.0 | 5.0 | 0.00 | 0.00 | 0.00 | 48 | 1013.3 | |
| 20260506192018 | 50 | 0.0 | 4.0 | 0.00 | 0.00 | 0.00 | 45 | 1013.4 | |
| 20260506191020 | 51 | 0.0 | 3.0 | 0.00 | 0.00 | 0.00 | 45 | 1013.3 | |
| 20260506190038 | 51 | 0.0 | 2.0 | 0.00 | 0.00 | 0.00 | 43 | 1013.5 | |
| 20260506185018 | 52 | 68 | 1.0 | 8.0 | 0.00 | 0.00 | 0.00 | 48 | 1013.6 |
| 20260506184018 | 51 | 225 | 1.0 | 5.0 | 0.00 | 0.00 | 0.00 | 47 | 1013.4 |
| 20260506183047 | 51 | 23 | 1.0 | 5.0 | 0.00 | 0.00 | 0.00 | 44 | 1013.6 |
| 20260506182027 | 52 | 0.0 | 2.0 | 0.00 | 0.00 | 0.00 | 49 | 1013.6 | |
| 20260506181056 | 50 | 68 | 1.0 | 9.0 | 0.00 | 0.00 | 0.00 | 50 | 1013.4 |
| 20260506180018 | 49 | 0.0 | 3.0 | 0.00 | 0.00 | 0.00 | 48 | 1013.5 | |
| 20260506175044 | 50 | 0.0 | 5.0 | 0.00 | 0.00 | 0.00 | 44 | 1013.6 | |
| 20260506174035 | 50 | 0.0 | 4.0 | 0.00 | 0.00 | 0.00 | 44 | 1013.8 | |
| 20260506173018 | 50 | 45 | 1.0 | 5.0 | 0.00 | 0.00 | 0.00 | 47 | 1013.9 |
| 20260506172047 | 50 | 225 | 1.0 | 6.0 | 0.00 | 0.00 | 0.00 | 45 | 1013.9 |
| 20260506171047 | 50 | 225 | 1.0 | 6.0 | 0.00 | 0.00 | 0.00 | 47 | 1014.1 |
| 20260506170029 | 49 | 0.0 | 3.0 | 0.00 | 0.00 | 0.00 | 47 | 1014.1 | |
| 20260506165036 | 48 | 0.0 | 4.0 | 0.00 | 0.00 | 0.00 | 48 | 1014.1 | |
| 20260506164020 | 49 | 0.0 | 4.0 | 0.00 | 0.00 | 0.00 | 48 | 1014.1 | |
| 20260506163029 | 49 | 0.0 | 1.0 | 0.00 | 0.00 | 0.00 | 48 | 1013.9 | |
| 20260506162021 | 49 | 0.0 | 1.0 | 0.00 | 0.00 | 0.00 | 48 | 1014.0 | |
| 20260506161050 | 47 | 0.0 | 5.0 | 0.00 | 0.00 | 0.00 | 49 | 1014.0 | |
| 20260506160020 | 47 | 0.0 | 3.0 | 0.00 | 0.00 | 0.00 | 47 | 1013.9 | |
| 20260506155037 | 48 | 0.0 | 3.0 | 0.00 | 0.00 | 0.00 | 48 | 1014.0 | |
| 20260506154040 | 46 | 0.0 | 4.0 | 0.00 | 0.00 | 0.00 | 50 | 1013.9 | |
| 20260506153020 | 47 | 0.0 | 5.0 | 0.00 | 0.00 | 0.00 | 50 | 1014.0 | |
| 20260506152020 | 47 | 0.0 | 2.0 | 0.00 | 0.00 | 0.00 | 49 | 1013.7 | |
| 20260506151042 | 47 | 0.0 | 2.0 | 0.00 | 0.00 | 0.00 | 53 | 1013.7 | |
| 20260506150018 | 46 | 0.0 | 3.0 | 0.00 | 0.00 | 0.00 | 53 | 1013.8 | |
| 20260506145029 | 45 | 0.0 | 3.0 | 0.00 | 0.00 | 0.00 | 51 | 1013.7 | |
| 20260506144020 | 47 | 0.0 | 3.0 | 0.00 | 0.00 | 0.00 | 51 | 1013.7 | |
| 20260506143046 | 47 | 0.0 | 2.0 | 0.00 | 0.00 | 0.00 | 53 | 1013.7 | |
| 20260506142020 | 47 | 0.0 | 0.0 | 0.00 | 0.00 | 0.00 | 53 | 1013.5 | |
| 20260506141020 | 46 | 0.0 | 2.0 | 0.00 | 0.00 | 0.00 | 52 | 1013.4 | |
| 20260506140020 | 46 | 0.0 | 1.0 | 0.00 | 0.00 | 0.00 | 56 | 1013.4 | |
| 20260506135042 | 45 | 0.0 | 1.0 | 0.00 | 0.00 | 0.00 | 56 | 1013.2 | |
| 20260506134046 | 44 | 0.0 | 1.0 | 0.00 | 0.00 | 0.00 | 58 | 1013.0 | |
| 20260506133020 | 44 | 0.0 | 1.0 | 0.00 | 0.00 | 0.00 | 58 | 1013.2 | |
| 20260506132020 | 42 | 0.0 | 0.0 | 0.00 | 0.00 | 0.00 | 62 | 1013.2 | |
| 20260506131037 | 42 | 0.0 | 3.0 | 0.00 | 0.00 | 0.00 | 64 | 1013.1 | |
| 20260506130019 | 41 | 0.0 | 3.0 | 0.00 | 0.00 | 0.00 | 65 | 1013.0 | |
| 20260506125020 | 40 | 0.0 | 2.0 | 0.00 | 0.00 | 0.00 | 69 | 1013.0 | |
| 20260506124057 | 39 | 0.0 | 0.0 | 0.00 | 0.00 | 0.00 | 73 | 1012.9 | |
| 20260506123020 | 38 | 0.0 | 0.0 | 0.00 | 0.00 | 0.00 | 77 | 1012.9 | |
| 20260506122028 | 37 | 0.0 | 0.0 | 0.00 | 0.00 | 0.00 | 83 | 1012.8 | |
| 20260506121149 | 35 | 0.0 | 0.0 | 0.00 | 0.00 | 0.00 | 87 | 1012.9 | |
| 20260506120040 | 33 | 0.0 | 0.0 | 0.00 | 0.00 | 0.00 | 89 | 1012.5 | |
| 20260506115020 | 31 | 0.0 | 0.0 | 0.00 | 0.00 | 0.00 | 89 | 1012.0 |